Regional Weather Roundup
Issued by NWS Goodland, KS

Home | Current Version | Previous Version | Graphics & Text | Print | Product List | Glossary On
Versions: 1 2 3 4 5 6 7 8 9 10 11 12 13 14 15 16 17 18 19 20 21 22 23 24 25 26 27 28 29 30 31 32 33 34 35 36 37 38 39 40 41 42 43 44 45 46 47 48 49 50
000
ASUS43 KGLD 261259
RWRGLD

GOODLAND FORECAST AREA HOURLY WEATHER ROUNDUP
NATIONAL WEATHER SERVICE GOODLAND KS
700 AM MDT THU APR 26 2018

...OFFICIAL OBSERVATIONS...

CITY           SKY/WX    TMP DP  RH WIND       PRES   REMARKS
GOODLAND KS    CLOUDY    47  34  60 N23G36    29.99R
HILL CITY KS   PTSUNNY   37  35  92 SW5       29.97R
IMPERIAL NEB   CLOUDY    49  35  58 NW23G33   30.04R
MCCOOK NEB     CLOUDY    43  36  76 W7        29.94R
AKRON CO       MOSUNNY   45  30  55 N30G43    30.14R
BURLINGTON CO  CLOUDY    48  32  53 N23G38    30.04R
LIMON CO       MOCLDY    41  27  57 N21G36    30.16R
$$

...UNOFFICIAL OBSERVATIONS...

CITY           SKY/WX    TMP DP  RH WIND       PRES   REMARKS
NORTON KS      SUNNY     39  34  81 SW3       29.93
SHARON SPRINGS   N/A     41  35  80 NW15        N/A
KIT CARSON CO    N/A     48  31  53 MISG        N/A
YUMA CO        FAIR      45  25  45 NW26G37   30.10R
$$




USA.gov is the U.S. government's official web portal to all federal, state and local government web resources and services.